Regional Weather Roundup
Issued by NWS

Home | Current Version | Previous Version | Graphics & Text | Print | Product List | Glossary On
Versions: 1 2 3 4 5 6 7 8 9 10 11 12 13 14 15 16 17 18 19 20 21 22 23 24 25 26 27 28 29 30 31 32 33 34 35 36 37 38 39 40 41 42 43 44 45 46 47 48 49 50
000
ASUS43 KFSD 222010
RWRSD

WEATHER ROUNDUP FOR SOUTH DAKOTA
NATIONAL WEATHER SERVICE SIOUX FALLS SD
300 PM CDT WED OCT 22 2014

NOTE: "FAIR" INDICATES FEW OR NO CLOUDS BELOW 12,000 FEET WITH NO
SIGNIFICANT WEATHER AND/OR OBSTRUCTIONS TO VISIBILITY.


SDZ001>005-009-010-012>017-222100-
NORTHWEST AND NORTH CENTRAL SOUTH DAKOTA

CITY           SKY/WX    TMP DP  RH WIND       PRES   REMARKS
BUFFALO          N/A     62  31  31 W22       29.88F
FAITH            N/A     65  35  33 W18G24    29.93F
MOBRIDGE       CLOUDY    63  45  51 W12       29.87F
$$

SDZ012>016-024>037-041>051-057-063-072>074-222100-
SOUTHWEST AND SOUTH CENTRAL SOUTH DAKOTA

CITY           SKY/WX    TMP DP  RH WIND       PRES   REMARKS
RAPID CTY ARPT SUNNY     64  29  26 SE3       29.99F
PIERRE         MOSUNNY   63  44  50 W13       29.93S
CUSTER         SUNNY     55  23  28 W14       30.05S
ELLSWORTH AFB  SUNNY     64  31  28 VRB5      29.98F
PHILIP         MOSUNNY   67  36  31 W14G21    29.96F
PINE RIDGE     SUNNY     62  40  44 SW5       30.03F
SPEARFISH      FAIR      59  28  31 NW12G20   30.01F
WINNER         FAIR      62  49  62 W10       29.98F
$$

SDZ004>011-016>023-039-040-222100-
NORTHEAST SOUTH DAKOTA

CITY           SKY/WX    TMP DP  RH WIND       PRES   REMARKS
ABERDEEN       CLOUDY    57  53  86 SW7       29.90R
WATERTOWN      CLOUDY    64  51  62 S14       29.89F
SISSETON         N/A     67  52  58 SW13      29.86F
$$

SDZ017-020-022-023-036>040-048>070-222100-
SOUTHEAST SOUTH DAKOTA

CITY           SKY/WX    TMP DP  RH WIND       PRES   REMARKS
SIOUX FALLS    CLOUDY    70  52  52 S14G24    29.92F
HURON          CLOUDY    56  54  93 MISG      29.92R
CHAMBERLAIN    CLOUDY    55  52  88 W8        29.96F
MITCHELL       LGT RAIN  56  55  97 S3        29.94F FOG
YANKTON        CLOUDY    70  54  56 SW7       29.91F
$$

ABBREVIATIONS USED IN REMARKS
   TC - TEMPERATURE IN CELSIUS
  WCI - WIND CHILL INDEX
   HX - HEAT INDEX
  VSB - VISIBILITY




USA.gov is the U.S. government's official web portal to all federal, state and local government web resources and services.